This is the latest recevied weather packets stored in our database for station/object KD8PH. If no packets are shown the sender has not sent any weather packets the latest 1 day(s).
| Time | Temp. | Humidity | Pressure | Rain* | Wind** | Luminosity | Snow |
|---|---|---|---|---|---|---|---|
| 1778000134 | 22.78° C | 52% | 1012.6 hPa | 0 mm | 2.24 m/s, 225° | - | - |
| 1777999547 | 22.22° C | 54% | 1012.8 hPa | 0 mm | 1.79 m/s, 225° | - | - |
| 1777998955 | 22.22° C | 56% | 1012.7 hPa | 0 mm | 2.68 m/s, 225° | - | - |
| 1777998344 | 21.67° C | 57% | 1012.8 hPa | 0 mm | 3.58 m/s, 225° | - | - |
| 1777997751 | 21.67° C | 56% | 1012.9 hPa | 0 mm | 1.79 m/s, 225° | - | - |
| 1777997133 | 21.67° C | 58% | 1012.7 hPa | 0 mm | 0.89 m/s, 225° | - | - |
| 1777996548 | 21.11° C | 59% | 1012.9 hPa | 0 mm | 0.89 m/s, 225° | - | - |
| 1777995939 | 21.11° C | 59% | 1012.8 hPa | 0 mm | 1.79 m/s, 225° | - | - |
| 1777995333 | 20.56° C | 61% | 1012.8 hPa | 0 mm | 1.79 m/s, 225° | - | - |
| 1777994747 | 20.56° C | 60% | 1012.9 hPa | 0 mm | 0.89 m/s, 248° | - | - |
| 1777994133 | 20.56° C | 63% | 1013.1 hPa | 0 mm | 0.89 m/s, 248° | - | - |
| 1777993538 | 20° C | 66% | 1013.1 hPa | 0 mm | 0.45 m/s, 180° | - | - |
| 1777992945 | 19.44° C | 66% | 1013.2 hPa | 0 mm | 0.45 m/s, 248° | - | - |
| 1777992336 | 18.89° C | 68% | 1013.1 hPa | 0 mm | 1.34 m/s, 203° | - | - |
| 1777991751 | 18.89° C | 69% | 1013.2 hPa | 0 mm | 1.79 m/s, 203° | - | - |
| 1777991141 | 18.33° C | 69% | 1013.3 hPa | 0 mm | 2.68 m/s, 225° | - | - |
| 1777990535 | 18.33° C | 66% | 1013.2 hPa | 0 mm | 3.13 m/s, 225° | - | - |
| 1777989937 | 18.33° C | 69% | 1013.5 hPa | 0 mm | 2.24 m/s, 225° | - | - |
| 1777988748 | 17.78° C | 70% | 1013.3 hPa | 0 mm | 0.45 m/s, 113° | - | - |
| 1777988135 | 17.78° C | 70% | 1013.4 hPa | 0 mm | 0.89 m/s, 135° | - | - |
| 1777987542 | 17.78° C | 71% | 1013.5 hPa | 0 mm | 0.89 m/s, 113° | - | - |
| 1777986937 | 17.22° C | 72% | 1013.5 hPa | 0 mm | 0.45 m/s, 135° | - | - |
| 1777986335 | 16.67° C | 74% | 1013.6 hPa | 0 mm | 0.45 m/s, 158° | - | - |
| 1777985743 | 16.67° C | 74% | 1013.4 hPa | 0 mm | 0.45 m/s, 158° | - | - |
| 1777985137 | 16.67° C | 73% | 1013.4 hPa | 0 mm | 0.45 m/s, 158° | - | - |
* Rain latest hour (hover to see other rain measurements)
** Current wind speed in m/s (hover to see current wind gust speed)